When you browse on this site, cookies collect data to enhance your experience and personalize the content and advertising you see.
Visit our Privacy Policy to learn more. By continuing to use the site, you agree to this use of cookies and data.
  • In Schweiz
  • Länderverzeichnis
  • Für 7 Tage
  • Wassertemperatur
  • Satellitenkarten
  • Wetterkarte
  • Widgets
  • user-avatar
    Anmelden

    Stündliche Wetter Luchki

    Heute, 22 Juli, Montag

    Zeit Temperatur Niederschläge Wind Luftdruck Luftfeuchtigkeit
    00:00 +16°C° 0 mm 2 m/S 746 mmHg 91%
    01:00 +16°C° 0 mm 1 m/S 746 mmHg 91%
    02:00 +15°C° 0 mm 1 m/S 746 mmHg 91%
    03:00 +15°C° 0 mm 1 m/S 746 mmHg 91%
    04:00 +15°C° 0 mm 1 m/S 746 mmHg 91%
    05:00 +16°C° 0 mm 1 m/S 746 mmHg 90%
    06:00 +16°C° 0 mm 1 m/S 746 mmHg 89%
    07:00 +19°C° 0 mm 1 m/S 746 mmHg 83%
    08:00 +20°C° 0 mm 1 m/S 746 mmHg 78%
    09:00 +22°C° 0 mm 1 m/S 746 mmHg 72%
    10:00 +23°C° 0 mm 1 m/S 746 mmHg 67%
    11:00 +24°C° 0 mm 1 m/S 746 mmHg 62%
    12:00 +25°C° 0 mm 2 m/S 746 mmHg 56%
    13:00 +25°C° 0.1 mm 2 m/S 746 mmHg 55%
    14:00 +26°C° 0.1 mm 2 m/S 745 mmHg 55%
    15:00 +26°C° 0.1 mm 2 m/S 745 mmHg 54%
    16:00 +26°C° 0.1 mm 2 m/S 745 mmHg 57%
    17:00 +26°C° 0.1 mm 2 m/S 745 mmHg 60%
    18:00 +25°C° 0.1 mm 1 m/S 745 mmHg 62%
    19:00 +24°C° 0 mm 1 m/S 744 mmHg 67%
    20:00 +22°C° 0 mm 1 m/S 744 mmHg 71%
    21:00 +18°C° 0 mm 0 m/S 744 mmHg 75%
    22:00 +20°C° 0 mm 1 m/S 744 mmHg 76%
    23:00 +19°C° 0 mm 2 m/S 744 mmHg 78%

    Morgen, 23 Juli, Dienstag

    Zeit Temperatur Niederschläge Wind Luftdruck Luftfeuchtigkeit
    00:00 +18°C° 0 mm 2 m/S 744 mmHg 79%
    01:00 +18°C° 0.2 mm 2 m/S 743 mmHg 82%
    02:00 +18°C° 0.2 mm 2 m/S 743 mmHg 86%
    03:00 +19°C° 0.2 mm 1 m/S 743 mmHg 89%
    04:00 +18°C° 0.5 mm 1 m/S 743 mmHg 91%
    05:00 +17°C° 0.5 mm 2 m/S 742 mmHg 92%
    06:00 +17°C° 0.5 mm 2 m/S 742 mmHg 94%
    07:00 +17°C° 0.2 mm 3 m/S 742 mmHg 93%
    08:00 +18°C° 0.2 mm 3 m/S 742 mmHg 92%
    09:00 +18°C° 0.2 mm 4 m/S 742 mmHg 91%
    10:00 +19°C° 0.1 mm 4 m/S 742 mmHg 86%
    11:00 +21°C° 0.1 mm 5 m/S 742 mmHg 81%
    12:00 +22°C° 0.1 mm 5 m/S 742 mmHg 77%
    13:00 +22°C° 0.5 mm 5 m/S 742 mmHg 76%
    14:00 +23°C° 0.5 mm 5 m/S 742 mmHg 75%
    15:00 +23°C° 0.5 mm 5 m/S 741 mmHg 75%
    16:00 +23°C° 0.7 mm 4 m/S 741 mmHg 77%
    17:00 +23°C° 0.7 mm 4 m/S 741 mmHg 79%
    18:00 +24°C° 0.7 mm 3 m/S 741 mmHg 80%
    19:00 +21°C° 0.8 mm 3 m/S 741 mmHg 84%
    20:00 +20°C° 0.8 mm 2 m/S 741 mmHg 89%
    21:00 +19°C° 0.8 mm 2 m/S 741 mmHg 93%
    22:00 +19°C° 0 mm 2 m/S 741 mmHg 93%
    23:00 +19°C° 0 mm 1 m/S 741 mmHg 93%

    übermorgen, 24 Juli, Mittwoch

    Zeit Temperatur Niederschläge Wind Luftdruck Luftfeuchtigkeit
    00:00 +19°C° 0 mm 1 m/S 741 mmHg 94%
    01:00 +19°C° 0 mm 1 m/S 741 mmHg 94%
    02:00 +18°C° 0 mm 1 m/S 741 mmHg 94%
    03:00 +18°C° 0 mm 1 m/S 741 mmHg 94%
    04:00 +18°C° 0 mm 1 m/S 741 mmHg 94%
    05:00 +19°C° 0 mm 1 m/S 741 mmHg 93%
    06:00 +19°C° 0 mm 1 m/S 741 mmHg 93%
    07:00 +19°C° 0.3 mm 1 m/S 741 mmHg 93%
    08:00 +19°C° 0.3 mm 1 m/S 741 mmHg 94%
    09:00 +19°C° 0.3 mm 1 m/S 741 mmHg 94%
    10:00 +19°C° 0.3 mm 2 m/S 741 mmHg 89%
    11:00 +21°C° 0.3 mm 2 m/S 741 mmHg 84%
    12:00 +22°C° 0.3 mm 3 m/S 741 mmHg 79%
    13:00 +23°C° 1.2 mm 2 m/S 741 mmHg 80%
    14:00 +21°C° 1.2 mm 2 m/S 741 mmHg 82%
    15:00 +22°C° 1.2 mm 1 m/S 741 mmHg 84%
    16:00 +21°C° 0.3 mm 1 m/S 741 mmHg 85%
    17:00 +20°C° 0.3 mm 2 m/S 741 mmHg 86%
    18:00 +20°C° 0.3 mm 2 m/S 741 mmHg 87%
    19:00 +20°C° 0.2 mm 2 m/S 742 mmHg 87%
    20:00 +19°C° 0.2 mm 2 m/S 742 mmHg 88%
    21:00 +20°C° 0.2 mm 1 m/S 742 mmHg 88%
    22:00 +19°C° 0.3 mm 2 m/S 742 mmHg 89%
    23:00 +18°C° 0.3 mm 3 m/S 742 mmHg 90%

    25 Juli, Donnerstag

    Zeit Temperatur Niederschläge Wind Luftdruck Luftfeuchtigkeit
    00:00 +18°C° 0.3 mm 4 m/S 742 mmHg 90%
    01:00 +18°C° 0 mm 4 m/S 742 mmHg 90%
    02:00 +18°C° 0 mm 4 m/S 743 mmHg 90%
    03:00 +18°C° 0 mm 4 m/S 743 mmHg 90%
    04:00 +18°C° 0 mm 3 m/S 743 mmHg 90%
    05:00 +18°C° 0 mm 3 m/S 743 mmHg 90%
    06:00 +18°C° 0 mm 2 m/S 743 mmHg 91%
    07:00 +19°C° 0 mm 2 m/S 744 mmHg 88%
    08:00 +19°C° 0 mm 2 m/S 744 mmHg 86%
    09:00 +20°C° 0 mm 2 m/S 744 mmHg 83%
    10:00 +23°C° 0 mm 2 m/S 744 mmHg 78%
    11:00 +24°C° 0 mm 2 m/S 745 mmHg 72%
    12:00 +26°C° 0 mm 2 m/S 745 mmHg 66%
    13:00 +26°C° 0.5 mm 3 m/S 745 mmHg 65%
    14:00 +26°C° 0.5 mm 3 m/S 745 mmHg 65%
    15:00 +27°C° 0.5 mm 4 m/S 745 mmHg 64%
    16:00 +26°C° 0.7 mm 4 m/S 745 mmHg 68%
    17:00 +25°C° 0.7 mm 4 m/S 745 mmHg 72%
    18:00 +25°C° 0.7 mm 4 m/S 744 mmHg 76%
    19:00 +24°C° 0.1 mm 3 m/S 745 mmHg 79%
    20:00 +21°C° 0.1 mm 3 m/S 745 mmHg 81%
    21:00 +20°C° 0.1 mm 2 m/S 745 mmHg 84%
    22:00 +20°C° 0.1 mm 2 m/S 745 mmHg 86%
    23:00 +19°C° 0.1 mm 2 m/S 745 mmHg 88%

    26 Juli, Freitag

    Zeit Temperatur Niederschläge Wind Luftdruck Luftfeuchtigkeit
    00:00 +18°C° 0.1 mm 2 m/S 745 mmHg 90%
    01:00 +18°C° 0 mm 2 m/S 745 mmHg 92%
    02:00 +18°C° 0 mm 2 m/S 745 mmHg 93%
    03:00 +17°C° 0 mm 2 m/S 744 mmHg 94%
    04:00 +17°C° 0 mm 2 m/S 744 mmHg 94%
    05:00 +18°C° 0 mm 3 m/S 744 mmHg 94%
    06:00 +18°C° 0 mm 3 m/S 744 mmHg 94%
    07:00 +19°C° 0 mm 4 m/S 744 mmHg 89%
    08:00 +20°C° 0 mm 4 m/S 744 mmHg 84%
    09:00 +22°C° 0 mm 5 m/S 744 mmHg 78%
    10:00 +23°C° 0 mm 5 m/S 744 mmHg 73%
    11:00 +23°C° 0 mm 6 m/S 744 mmHg 68%
    12:00 +24°C° 0 mm 6 m/S 744 mmHg 62%
    13:00 +24°C° 0 mm 6 m/S 743 mmHg 62%
    14:00 +26°C° 0 mm 6 m/S 743 mmHg 62%
    15:00 +26°C° 0 mm 6 m/S 743 mmHg 62%
    16:00 +25°C° 0.1 mm 5 m/S 743 mmHg 65%
    17:00 +25°C° 0.1 mm 5 m/S 743 mmHg 67%
    18:00 +23°C° 0.1 mm 4 m/S 742 mmHg 70%
    19:00 +22°C° 0 mm 4 m/S 742 mmHg 73%
    20:00 +20°C° 0 mm 4 m/S 743 mmHg 76%
    21:00 +19°C° 0 mm 4 m/S 743 mmHg 79%
    22:00 +18°C° 0 mm 4 m/S 743 mmHg 79%
    23:00 +17°C° 0 mm 4 m/S 742 mmHg 80%

    27 Juli, Samstag

    Zeit Temperatur Niederschläge Wind Luftdruck Luftfeuchtigkeit
    00:00 +15°C° 0 mm 4 m/S 742 mmHg 81%
    01:00 +15°C° 0 mm 4 m/S 742 mmHg 85%
    02:00 +14°C° 0 mm 4 m/S 742 mmHg 89%
    03:00 +14°C° 0 mm 4 m/S 742 mmHg 94%
    04:00 +14°C° 0 mm 4 m/S 742 mmHg 94%
    05:00 +14°C° 0 mm 5 m/S 742 mmHg 93%
    06:00 +14°C° 0 mm 5 m/S 742 mmHg 93%
    07:00 +15°C° 0 mm 5 m/S 742 mmHg 87%
    08:00 +16°C° 0 mm 5 m/S 742 mmHg 81%
    09:00 +17°C° 0 mm 5 m/S 742 mmHg 75%
    10:00 +19°C° 0 mm 6 m/S 742 mmHg 71%
    11:00 +20°C° 0 mm 6 m/S 742 mmHg 67%
    12:00 +21°C° 0 mm 6 m/S 742 mmHg 64%
    13:00 +21°C° 0 mm 6 m/S 742 mmHg 63%
    14:00 +21°C° 0 mm 6 m/S 741 mmHg 62%
    15:00 +22°C° 0 mm 6 m/S 741 mmHg 62%
    16:00 +21°C° 0 mm 5 m/S 741 mmHg 63%
    17:00 +21°C° 0 mm 5 m/S 740 mmHg 65%
    18:00 +21°C° 0 mm 4 m/S 740 mmHg 66%
    19:00 +20°C° 0 mm 4 m/S 740 mmHg 70%
    20:00 +19°C° 0 mm 4 m/S 740 mmHg 75%
    21:00 +17°C° 0 mm 3 m/S 740 mmHg 80%
    22:00 +17°C° 0 mm 3 m/S 739 mmHg 79%
    23:00 +16°C° 0 mm 3 m/S 739 mmHg 79%
    Mehr zeigen